Regional Weather Roundup
Issued by NWS

Home | Current Version | Previous Version | Graphics & Text | Print | Product List | Glossary On
Versions: 1 2 3 4 5 6 7 8 9 10 11 12 13 14 15 16 17 18 19 20 21 22 23 24 25 26 27 28 29 30 31 32 33 34 35 36 37 38 39 40 41 42 43 44 45 46 47 48 49 50
000
ASUS43 KLOT 282008
RWRIL

ILLINOIS REGIONAL WEATHER ROUNDUP
NATIONAL WEATHER SERVICE CHICAGO/ROMEOVILLE IL
300 PM CDT SAT MAY 28 2016

NOTE: "FAIR" INDICATES FEW OR NO CLOUDS BELOW 12,000 FEET WITH NO
SIGNIFICANT WEATHER AND/OR OBSTRUCTIONS TO VISIBILITY.

* THESE STATIONS ARE NOT UNDER NWS QUALITY CONTROL. THEY ALSO MAY NOT
  REPORT WEATHER SUCH AS PRECIPITATION OR FOG.

ILZ001-002-007-009-015-016-024-282100-
NORTHWEST ILLINOIS

CITY           SKY/WX    TMP DP  RH WIND       PRES   REMARKS
MOLINE         SUNNY     84  65  52 S18G29    29.80F HX  86
STERLING*      MOSUNNY   81  65  58 VRB7      29.85F HX  83
SAVANNA*       PTSUNNY   83  65  54 S17       29.81F HX  84
$$

ILZ003-004-008-010-011-017-018-282100-
NORTH CENTRAL ILLINOIS

CITY           SKY/WX    TMP DP  RH WIND       PRES   REMARKS
ROCKFORD       PTSUNNY   81  62  52 S15G26    29.87F HX  82
FREEPORT*      PTSUNNY   80  64  56 S17G24    29.85F HX  82
ROCHELLE*      PTSUNNY   83  63  50 S21       29.87F HX  84
DE KALB*       MOSUNNY   78  66  66 S20G26    29.90S HX  80
$$

ILZ005-006-012>014-019>023-282100-
NORTHEAST ILLINOIS

CITY           SKY/WX    TMP DP  RH WIND       PRES   REMARKS
CHICAGO-OHARE  PTSUNNY   78  65  63 S20G25    29.90F HX  80
CHICAGO-MIDWAY CLOUDY    79  64  60 SW18G25   29.92F HX  81
AURORA         MOSUNNY   82  64  54 S20G25    29.89F HX  83
LANSING*       CLOUDY    77  65  64 S15G23    29.94F
JOLIET*        CLOUDY    81  68  63 S12G22    29.91F HX  84
WAUKEGAN       CLOUDY    79  65  62 S17G25    29.89F HX  81
DUPAGE AIRPORT MOSUNNY   80  64  58 S14       29.90F HX  82
KANKAKEE*      CLOUDY    81  67  62 S18G28    29.95S HX  83
WHEELING       PTSUNNY   77  64  64 S21       29.91F
MORRIS*        MOSUNNY   81  66  60 S15       29.89F HX  83
ROMEOVILLE*    MOSUNNY   80  62  53 S17G28    29.91F HX  82
NORTHERLY ISL    N/A     76  62  62 S20         N/A
NORTHERLY ISL    N/A     76  62  62 S20         N/A
$$

LMZ740>746-282100-
SOUTHERN LAKE MICHIGAN

STATION/POSITION SKY/WX   TEMP    WIND        PRES    VSBY  WAVE
                          AIR SEA DIR/SP/G                  HT/PER
                          (F)     (DEG/KT/KT) (MB)    (MI)  (FT/S)
SOUTHERN BUOY              55 50  160/ 10/ 12 1013.2S         1/ 3
WILMETTE HARBOR            66 55  210/ 12/ 16   N/A           2/ 3
HARRISON CRIB              74     200/ 25/ 26   N/A
BURNHAM HARBOR             76     190/ 14/ 22   N/A
CALUMET HARBOR             75     180/ 12/ 21 1013.1F
BURNS HARBOR               75     190/ 18/ 27 1014.2S
MICHIGAN CITY              76     170/ 19/ 24   N/A
MICHIGAN CITY 6N           70 58  220/ 14/ 17   N/A           2/ 3
ST. JOSEPH                 70 61  190/ 10/ 12   N/A           2/ 3
$$

ILZ025>027-034>036-040-047-049-050-058-095>099-282100-
WEST-CENTRAL ILLINOIS

CITY           SKY/WX    TMP DP  RH WIND       PRES   REMARKS
QUINCY         CLOUDY    81  65  58 S20G26    29.86S HX  83
GALESBURG*     MOSUNNY   81  66  61 S18G24    29.85S HX  83
MACOMB*        MOSUNNY   81  65  59 S17G26    29.88S HX  82
JACKSONVILLE*  MOSUNNY   83  66  56 S16G23    29.89F HX  84
PITTSFIELD*    MOSUNNY   82  69  66 S14G21    29.90R HX  85
$$

ILZ028>032-037-038-041>044-048-051>054-059>061-282100-
CENTRAL ILLINOIS

CITY           SKY/WX    TMP DP  RH WIND       PRES   REMARKS
PONTIAC        MOSUNNY   85  66  52 S22       29.91F HX  87
BLOOMINGTON    MOSUNNY   83  68  60 S22G28    29.92F HX  86
DECATUR        MOSUNNY   82  67  60 S15G25    29.94S HX  84
PEORIA         MOSUNNY   84  62  47 S17G28    29.87F HX  85
LACON*         SUNNY     83  63  51 SW13G20   29.87S HX  84
LINCOLN*       MOSUNNY   85  66  54 S15G25    29.90F HX  87
SPRINGFIELD    MOSUNNY   85  66  53 S21G28    29.90F HX  87
TAYLORVILLE    SUNNY     82  68  61 S16G23    29.93F HX  85
$$

ILZ033-039-045-046-055>057-062-063-282100-
EAST-CENTRAL ILLINOIS

CITY           SKY/WX    TMP DP  RH WIND       PRES   REMARKS
CHAMPAIGN      MOSUNNY   79  67  66 S20G31    29.96S HX  81
RANTOUL*       MOSUNNY   81  68  66 S20       29.96S HX  83
MATTOON        PTSUNNY   77  63  61 S14G21    29.97F
PARIS*         CLOUDY    79  69  71 S9        30.00S HX  81
$$

ILZ079-100>102-282100-
SOUTHWEST ILLINOIS

CITY           SKY/WX    TMP DP  RH WIND       PRES   REMARKS
ALTON          MOSUNNY   82  68  61 S18       29.93F HX  85
BELLEVILLE     SUNNY     83  70  64 VRB5      29.93S HX  87
CAHOKIA*       MOSUNNY   83  66  56 S10       29.92F HX  85
SPARTA*        PTSUNNY   81  69  67 S14G21    29.97S HX  83
$$

ILZ064>066-069>071-074>076-080>082-084>086-088>090-092>094-282100-
SOUTH-CENTRAL ILLINOIS

CITY           SKY/WX    TMP DP  RH WIND       PRES   REMARKS
CARBONDALE     MOSUNNY   81  66  60 S14       29.99S HX  83
CAIRO*         CLOUDY    81  68  66 S10G16    30.00F HX  83
EFFINGHAM*     CLOUDY    81  69  67 S14G20    29.99F HX  84
MARION         PTSUNNY   82  70  65 S12       30.00S HX  86
MT. VERNON     CLOUDY    82  68  61 S13       29.99S HX  85
CENTRALIA*     PTSUNNY   80  71  71 S13       29.97S HX  84
SALEM*         PTSUNNY   82  68  63 S10       29.97S HX  84
METROPOLIS*    PTSUNNY   81  70  70 CALM      30.02S HX  84
$$

ILZ067-068-072-073-078-083-087-091-282100-
SOUTHEAST ILLINOIS

CITY           SKY/WX    TMP DP  RH WIND       PRES   REMARKS
LAWRENCEVILLE  CLOUDY    84  63  49 S23       30.00S HX  85
FLORA*         CLOUDY    83  69  63 S15       29.99S HX  86
FAIRFIELD*     PTSUNNY   82  68  63 SW9       29.98F HX  85
HARRISBURG*    CLOUDY    82  70  68 SW9G16    30.00S HX  85
ROBINSON*      CLOUDY    82  67  59 SW15      30.01S HX  85
CARMI*         PTSUNNY   80  69  68 S15G23    30.00S HX  83
$$

ABBREVIATIONS USED IN REMARKS
   TC - TEMPERATURE IN CELSIUS
  WCI - WIND CHILL INDEX
   HX - HEAT INDEX
  VSB - VISIBILITY
$$





USA.gov is the U.S. government's official web portal to all federal, state and local government web resources and services.